Regional Weather Roundup
Issued by NWS

Home | Current Version | Previous Version | Graphics & Text | Print | Product List | Glossary On
Versions: 1 2 3 4 5 6 7 8 9 10 11 12 13 14 15 16 17 18 19 20 21 22 23 24 25 26 27 28 29 30 31 32 33 34 35 36 37 38 39 40 41 42 43 44 45 46 47 48 49 50
000
ASUS43 KDMX 250103
RWRIA

WEATHER ROUNDUP FOR IOWA
NATIONAL WEATHER SERVICE DES MOINES IA
800 PM CDT WED AUG 24 2016

NOTE: "FAIR" INDICATES FEW OR NO CLOUDS BELOW 12,000 FEET WITH NO
SIGNIFICANT WEATHER AND/OR OBSTRUCTIONS TO VISIBILITY.

* - THESE STATIONS ARE NOT NWS STATIONS...THUS NOT UNDER NWS
QUALITY CONTROL.  THEY ALSO DO NOT REPORT WEATHER SUCH
AS PRECIPITATION OR FOG.

IAZ001>003-012>014-020>022-031>034-043>046-250200-
   NORTHWEST IOWA

CITY           SKY/WX    TMP DP  RH WIND       PRES   REMARKS
CARROLL *      CLOUDY    70  66  88 NW8       30.02S
CHEROKEE *     CLOUDY    69  66  88 CALM      30.05F
DENISON *      CLOUDY    70  64  83 N5        30.02F HAZE
LE MARS *      CLOUDY    68  63  83 CALM      30.07R
ORANGE CITY *  CLOUDY    66  63  88 CALM      30.07S
SHELDON *      CLOUDY    64  63  94 CALM      30.05S
SIOUX CITY     MOCLDY    68  61  78 NW5       30.05F
SPENCER        CLOUDY    67  62  84 W7        30.06R
STORM LAKE *   CLOUDY    68  63  83 NW8       30.06S
$$

IAZ055>058-069>071-079>083-090>094-250200-
   SOUTHWEST IOWA

CITY           SKY/WX    TMP DP  RH WIND       PRES   REMARKS
ATLANTIC *     MOCLDY    70  64  83 NE5       30.02R
AUDUBON *      CLOUDY    70  64  83 NW6       30.04R
CLARINDA *       N/A     70  68  94 MISG      30.06R
COUNCIL BLFS * MOCLDY    70  64  83 CALM      30.04R
CRESTON *      CLOUDY    70  68  94 W6        30.05R
HARLAN  *      LGT RAIN  70  66  88 N8        30.05F
LAMONI         CLOUDY    73  69  87 N6        30.02R
RED OAK *      CLOUDY    70  66  88 CALM      30.03S
SHENANDOAH *   CLOUDY    72 -36   1 CALM      30.03S
$$

IAZ047>049-059>061-072>074-084-250200-
   CENTRAL IOWA

CITY           SKY/WX    TMP DP  RH WIND       PRES   REMARKS
AMES           CLOUDY    74  69  85 N9        30.00S
ANKENY *         N/A    N/A N/A N/A MISG        N/A
BOONE *        CLOUDY    72  66  83 N8        30.00F
CHARITON *       N/A     68  66  94 MISG      29.99F
DES MOINES     CLOUDY    74  71  91 N10       29.96F
GRINNELL*      RAIN      73  71  93 W6        30.00F
KNOXVILLE *    CLOUDY    70  66  88 CALM      29.96S
MARSHALLTOWN   CLOUDY    73  73 100 SW3       30.00R
NEWTON *       CLOUDY    73  73 100 N6        29.97F FOG
PERRY *          N/A     73  66  79 N8        29.99F
$$

IAZ004>006-015-016-023>025-035-036-250200-
   NORTH CENTRAL IOWA

CITY           SKY/WX    TMP DP  RH WIND       PRES   REMARKS
ALGONA *       CLOUDY    70  66  88 W3        30.04R
ESTHERVILLE    CLOUDY    66  63  90 W5        30.05R
FORT DODGE *   CLOUDY    72  63  73 CALM      30.04R
MASON CITY     CLOUDY    69  64  84 NW7       30.04R
FOREST CITY *    N/A    N/A N/A N/A MISG        N/A
WEBSTER CITY * CLOUDY    70  66  88 NW5       30.00S
IOWA FALLS *     N/A     72  68  89 W5        30.02R
$$

IAZ007>011-017>019-026>030-037>042-050>054-066-250200-
   NORTHEAST IOWA

CITY           SKY/WX    TMP DP  RH WIND       PRES   REMARKS
CEDAR RAPIDS   HVY RAIN  75  74  96 NW8       29.96R FOG
CHARLES CITY * CLOUDY    72  70  94 NW5       30.00R
CLINTON *      CLOUDY    76  72  87 SW6       29.96S
DECORAH *      MOCLDY    72  68  88 NW3       29.97S
DUBUQUE        CLOUDY    75  71  87 W6        29.96F
MONTICELLO *   CLOUDY    75  72  88 SW5       29.96R
OELWEIN *      CLOUDY    73  72  94 NW6       29.99R
WATERLOO       CLOUDY    74  69  85 W5        29.98R
$$

IAZ064-065-067-068-078-250200-
   EAST CENTRAL IOWA

CITY           SKY/WX    TMP DP  RH WIND       PRES   REMARKS
DAVENPORT      CLOUDY    76  71  85 W3        29.96S
IOWA CITY      CLOUDY    80  71  74 N8        29.96S HX  84
MT. PLEASANT * CLOUDY    80  78  95 S6        29.96F HX  86
MUSCATINE *    CLOUDY    81  73  78 CALM      29.95S HX  85
QUAD CITIES    CLOUDY    81  71  71 CALM      29.95S HX  85
$$

IAZ062-063-075>077-085>089-095>099-250200-
   SOUTHEAST IOWA

CITY           SKY/WX    TMP DP  RH WIND       PRES   REMARKS
BURLINGTON     RAIN      78  77  96 CALM      29.97R FOG     HX  81
FAIRFIELD *    CLOUDY    77  73  88 SW8       29.97R
FORT MADISON * DRIZZLE   77  75  94 CALM      29.98R
KEOKUK *       MOCLDY    79  75  89 SW6       29.97R HX  82
OSKALOOSA *    CLOUDY    66  64  94 N7        29.99S
CENTERVILLE *    N/A     75  73  94 CALM      30.01F
OTTUMWA        LGT RAIN  68  66  93 NW12      30.00R FOG
WASHINGTON *   CLOUDY    77  75  94 S5        29.95F
$$

ABBREVIATIONS USED IN REMARKS
   TC - TEMPERATURES IN CELSIUS
  WCI - WIND CHILL INDEX
   HX - HEAT INDEX
  VSB - VISIBILITY
$$





USA.gov is the U.S. government's official web portal to all federal, state and local government web resources and services.